STARLINK-1557, 46034

Orbit data source: Space-Track

STARLINK-1557, 46034 is a payload satellite owned by SpaceX/Seattle (US) in LEO that was launched on Fri, 07 Aug 2020 UTC via an FALCON 9 launch vehicle from the Air Force Eastern Test Range (AFETR). Payload-class satellites include a variety of spacecraft equipped with specific instruments for various scientific and technological missions. These include communications satellites like Starlink; space stations such as the ISS; scientific satellites like the Hubble; Earth observation satellites from companies like Planet Labs, Umbra, and HawkEye 360; GPS; miniature CubeSats for education and research; and military/defense satellites.

Loading next visibility...
Identifier
46034, 2020-055H
Orbit
LEO
Country
Flag of USUS
Related business
Manufacturer
SpaceX/Seattle
Mission
Operational Commercial Communications
Bus & Motor
STARLINK, Unknown motor
Mass
260 kg wet, ~248 kg dry
Launch date (UTC)
2020-08-07 (5 years ago)
Launch vehicle
FALCON 9
Launch site
Air Force Eastern Test Range (AFETR)
Object type
Payload
Rocket body
Debris
Shape & HBR
Box + 1 Pan, 10.1 m
Radar Cross Section
13.562 m², Large (>1 m²)

Expand to show TLE details & history
Last TLE update: 11 hours ago

TLE from 11 hours ago
0 STARLINK-1557
1 46034U 20055H   25291.29314990  .00003476  00000-0  25212-3 0  9990
2 46034  53.0566  45.8614 0001880  98.5145 261.6057 15.06403420287404
Epoch: 2025-10-18T07:02Z
TLE epoch observation values (Epoch: 2025-10-18T07:02:08.151Z)
Latitude
-0.00003°
Longitude
-86.69883°
Altitude
548.271 km
Speed
7.589 km/s
True Right ascension
03h 03m 26s
True Declination
0° 00' 00"
Sunlit
Object was in full shadow at epoch
Visualization orbit readout
Latitude
Unknown
Longitude
Unknown
Altitude
Unknown
Speed
Unknown
Apparent Right ascension
Unknown
Apparent Declination
Unknown
Sunlit
N/A
Visualization observer readout
Local Sidereal Time
12:49:36
Azimuth
Unknown
Elevation
Unknown
Doppler factor
Unknown
Orbital elements
Apogee altitude
548.773 km
Perigee altitude
546.169 km
Semi-major axis
6,925.608 km
Eccentricity
0.00019
Inclination
53.0566°
RAAN
45.8614°
Arg. of periapsis
98.5145°
True anomaly
261.58439°
Mean anomaly
261.6057°
Eccentric anomaly
261.59504°
Mean motion
3.76579 °/min
Orbital period
95.6 mins
BSTAR
0.00025212
Loading maneuver chart data...
Computing Atmospheric mass density...
Loading historical data...
Loading historical data...
Loading historical data...
Loading historical data...
Loading historical data...
Loading historical data...
Loading historical data...

Documentation

Showing up to 5 results
|